Miscellaneous Local Product
Issued by NWS North Platte, NE

Home | Current Version | Previous Version | Graphics & Text | Print | Product List | Glossary On
Versions: 1 2 3 4 5 6 7 8 9 10 11 12 13 14 15 16 17 18 19 20 21 22 23 24 25 26 27 28 29 30 31 32 33 34 35 36 37 38 39 40 41 42 43 44 45 46 47 48 49 50
759
AXUS43 KLBF 231310
MISLBF


WESTERN AND NORTH CENTRAL NEBRASKA HOURLY WEATHER ROUNDUP
NATIONAL WEATHER SERVICE NORTH PLATTE NE
800 AM CDT SUN APR 23 2017

NOTE: "FAIR" INDICATES FEW OR NO CLOUDS BELOW 12,000 FEET WITH NO
SIGNIFICANT WEATHER AND/OR OBSTRUCTIONS TO VISIBILITY.

NOTE: STATIONS NOT REPORTING VARIABLES SUCH AS SKY/WEATHER OR
PRESSURE ARE PROVIDED BY RAWS AND APRS NETWORKS AND ARE NOT UNDER
NATIONAL WEATHER SERVICE QUALITY CONTROL.

...OBSERVATIONS IN AND NEAR THE EASTERN PANHANDLE OF NEBRASKA...

CITY           SKY/WX    TMP DP  RH WIND       PRES   REMARKS
PINE RIDGE     MOSUNNY   47  34  60 S20G26    29.92F
CHADRON        MOSUNNY   46  32  58 S14       29.89F
ALLIANCE       CLOUDY    41  33  73 S14       29.96F
SIDNEY         CLOUDY    40  35  83 SW12      30.03F WCI  33
CRESCENT LAKE    N/A     42  35  76 S9          N/A
$$

...OBSERVATIONS IN NORTHERN NEBRASKA AND FAR SOUTHERN SOUTH DAKOTA...

CITY           SKY/WX    TMP DP  RH WIND       PRES   REMARKS
WINNER         FAIR      49  32  52 SW18G25   29.99F
VALENTINE      PTSUNNY   48  30  49 S18G25    30.00F
THEDFORD       CLOUDY    41  32  70 S5        30.09S
AINSWORTH      CLOUDY    46  33  60 SW17      30.05F
O`NEILL        SUNNY     44  33  64 S8        30.10S
ORD            SUNNY     40  31  70 S5        30.11F
BROKEN BOW     SUNNY     38  28  67 CALM      30.11F
VALENTINE NWR    N/A     37  28  71 S9          N/A  WCI  30
HALSEY           N/A     37  29  72 S3          N/A
BUTTE            N/A     44  34  67 N9G18       N/A
CHAMBERS         N/A     46  32  58 W3          N/A
EWING            N/A     46  35  66 S5          N/A
$$

...OBSERVATIONS IN SOUTHWEST NEBRASKA AND FAR NORTHEAST COLORADO...

CITY           SKY/WX    TMP DP  RH WIND       PRES   REMARKS
HOLYOKE        FAIR      37  34  87 S8        30.08F WCI  31
IMPERIAL       CLOUDY    39  32  76 S8        30.11S WCI  33
OGALLALA       CLOUDY    37  32  81 S3        30.08F
NORTH PLATTE   SUNNY     37  30  75 SE3       30.12R
MCCOOK         CLOUDY    37  32  82 SW3       30.13F
LEXINGTON      SUNNY     42  32  67 SW8       30.14R
STAPLETON        N/A     39  32  76 CALM        N/A
GOTHENBURG       N/A     38  27  63 CALM        N/A
CALLAWAY         N/A     31  25  78 S8          N/A  WCI  24
$$

...OBSERVATIONS IN CENTRAL LINCOLN COUNTY AREA...

CITY           SKY/WX    TMP DP  RH WIND       PRES   REMARKS
N.P. AIRPORT   SUNNY     37  30  75 SE3       30.12R
N.P. DOWNTOWN    N/A     42  32  68 CALM        N/A
N.P. HILLCREST   N/A     41  32  69 SW3         N/A
$$

...SOME OBSERVATIONS FROM AROUND THE REGION...

CITY           SKY/WX    TMP DP  RH WIND       PRES   REMARKS
DENVER         CLOUDY    41  31  67 W10       30.01R
LIMON          CLOUDY    34  33  96 SE9       30.07S WCI  27
ASPEN          CLOUDY    27  19  72 S7        30.12F WCI  19
LARAMIE        CLOUDY    37  24  59 S3        30.00F
CASPER         CLOUDY    43  27  53 SW12      29.91R
CHEYENNE       CLOUDY    36  30  79 SW6       29.99F WCI  31
SCOTTSBLUFF    CLOUDY    40  31  70 E10       29.96F WCI  33
GRAND ISLAND   SUNNY     47  34  60 SW7       30.16S
OMAHA          MOSUNNY   44  38  79 S6        30.17S
SIOUX FALLS    MOSUNNY   51  35  54 SW9       30.08S
PIERRE         MOSUNNY   45  34  65 E7        29.94S
RAPID CITY     CLOUDY    46  35  65 SE9       29.84F
BISMARCK       CLOUDY    33  27  78 E21G29    30.08R WCI  21
KANSAS CITY    MOSUNNY   47  36  65 N3        30.19R
HILL CITY      SUNNY     39  33  79 CALM      30.18S
WICHITA        SUNNY     44  38  79 NW5       30.19S
DODGE CITY     SUNNY     39  33  79 SW5       30.21R
OKLAHOMA CITY  SUNNY     46  40  79 NW10      30.19R
DALLAS         SUNNY     53  44  71 NW13      30.15R
AMARILLO       SUNNY     39  32  76 S7        30.25S WCI  34
$$




USA.gov is the U.S. government's official web portal to all federal, state and local government web resources and services.